Weather Roundup
Issued by NWS Springfield, MO

Home | Current Version | Previous Version | Text Only | Print | Product List | Glossary On
Versions: 1 2 3 4 5 6 7 8 9 10 11 12 13 14 15 16 17 18 19 20 21 22 23 24 25 26 27 28 29 30 31 32 33 34 35 36 37 38 39 40 41 42 43 44 45 46 47 48 49 50
298
NZUS99 KSGF 261107
HRRSGF

HOURLY WEATHER
NATIONAL WEATHER SERVICE SPRINGFIELD MO
600 AM CDT SUN MAR 26 2017

......SGF CWA......

CITY           SKY/WX    TMP DP  RH WIND       PRES   REMARKS
SPRINGFIELD    CLOUDY    47  44  90 W7        29.90R
JOPLIN         CLOUDY    47  45  93 W5        29.93R
WEST PLAINS    CLOUDY    48  44  86 SW5       29.91R
ROLLA          CLOUDY    47  46  97 SW10      29.85R
OSAGE BEACH    CLOUDY   N/A N/A N/A SW8       29.89R FOG
BRANSON        CLOUDY    46  46 100 CALM      29.93R

......SURROUNDING SGF CWA......

CITY           SKY/WX    TMP DP  RH WIND       PRES   REMARKS
CHANUTE        CLOUDY    46  44  93 NE5       29.90F
PARSONS        CLOUDY    47  44  90 CALM      29.90F
COFFEYVILLE    CLOUDY    48  45  89 CALM      29.91F
EMPORIA        CLOUDY    43  43 100 CALM      29.87F FOG
GROVE OK       CLEAR     43  43 100 CALM      29.93F
ROGERS AR      CLOUDY    45  44  97 NW5       29.93S
SILOAM SPRINGS CLOUDY    41  37  87 NE3       29.92S VSB 1/2
HARRISON AR    CLOUDY    48  45  89 CALM      29.92R
NEAR YELLVILLE CLOUDY    50  43  76 CALM      29.91R

......KANSAS AND MISSOURI......

CITY           SKY/WX    TMP DP  RH WIND       PRES   REMARKS
KANSAS CTY INT CLOUDY    43  41  93 CALM      29.89R
DOWNTOWN KC    CLOUDY    45  42  89 NW5       29.89S
COLUMBIA       CLOUDY    49  49 100 W9        29.86R FOG
SEDALIA        CLOUDY    48  32  53 W6        29.88R HAZE
ST JOSEPH      CLOUDY    43  42  97 W7        29.89S
ST LOUIS       CLOUDY    53  47  79 SW10      29.85R
SPIRIT OF STL  CLOUDY    52  48  86 SW9       29.85R
KIRKSVILLE     CLOUDY    45  45 100 W8        29.82R FOG
WICHITA        CLOUDY    43  42  97 CALM      29.89R
TOPEKA         CLOUDY    44  43  96 NW3       29.90R
OLATHE         CLOUDY    43  42  97 W3        29.89S

......TENNESSEE......

CITY           SKY/WX    TMP DP  RH WIND       PRES   REMARKS
MEMPHIS        CLOUDY    59  58  96 S7        29.93R
NASHVILLE      CLOUDY    58  56  93 S10       29.97S

......ARKANSAS.......

CITY           SKY/WX    TMP DP  RH WIND       PRES   REMARKS
FAYETTEVILLE   CLEAR     42  42 100 CALM      29.92S FOG
FT SMITH       CLEAR     45  43  93 CALM      29.92S
LITTLE ROCK    CLEAR     46  46 100 CALM      29.95R

......OKLAHOMA.......

CITY           SKY/WX    TMP DP  RH WIND       PRES   REMARKS
TULSA          CLEAR     43  43 100 NE5       29.89F
PONCA CITY     CLEAR     39  37  92 CALM      29.90R
MCALESTER      CLEAR     43  40  89 CALM      29.91R
OKLAHOMA CITY  CLEAR     42  40  92 E6        29.86S

......IOWA............

CITY           SKY/WX    TMP DP  RH WIND       PRES   REMARKS
DES MOINES     CLOUDY    42  41  96 NW7       29.85R
QUAD CITIES    FOG       49  48  97 E5        29.79S VSB 1/4

......ILLINOIS........

CITY           SKY/WX    TMP DP  RH WIND       PRES   REMARKS
QUINCY         CLOUDY    50  50 100 SW10      29.80R FOG
CHICAGO        CLOUDY    48  45  89 NE6       29.85F FOG




USA.gov is the U.S. government's official web portal to all federal, state and local government web resources and services.